| time (UTC) | temp C | wind direction | speed KPH | gust KPH | rain 1hr cm | rain 24hr cm | rain mn cm | humidity % | barometer mb |
| 20260503055004 | 2 | 233 | 6.4 | 12.9 | 0.00 | 0.00 | 0.00 | 61 | 1014.6 |
| 20260503054504 | 2 | 271 | 6.4 | 14.5 | 0.00 | 0.00 | 0.00 | 61 | 1014.6 |
| 20260503054006 | 2 | 271 | 6.4 | 14.5 | 0.00 | 0.00 | 0.00 | 61 | 1014.7 |
| 20260503053502 | 3 | 262 | 4.8 | 11.3 | 0.00 | 0.00 | 0.00 | 61 | 1014.8 |
| 20260503053002 | 3 | 245 | 4.8 | 9.7 | 0.00 | 0.00 | 0.00 | 60 | 1014.7 |
| 20260503052600 | 3 | 226 | 4.8 | 11.3 | 0.00 | 0.00 | 0.00 | 60 | 1014.7 |
| 20260503052100 | 3 | 264 | 6.4 | 11.3 | 0.00 | 0.00 | 0.00 | 60 | 1014.8 |
| 20260503051558 | 3 | 244 | 4.8 | 11.3 | 0.00 | 0.00 | 0.00 | 60 | 1014.9 |
| 20260503051100 | 3 | 265 | 4.8 | 12.9 | 0.00 | 0.00 | 0.00 | 60 | 1014.9 |
| 20260503050558 | 3 | 256 | 4.8 | 12.9 | 0.00 | 0.00 | 0.00 | 60 | 1015.1 |
| 20260503050057 | 3 | 242 | 4.8 | 9.7 | 0.00 | 0.00 | 0.00 | 60 | 1015.0 |
| 20260503045556 | 3 | 233 | 3.2 | 9.7 | 0.00 | 0.00 | 0.00 | 60 | 1015.0 |
| 20260503045054 | 3 | 265 | 4.8 | 11.3 | 0.00 | 0.00 | 0.00 | 60 | 1015.1 |
| 20260503044554 | 3 | 237 | 4.8 | 12.9 | 0.00 | 0.00 | 0.00 | 59 | 1015.1 |
| 20260503044053 | 3 | 255 | 4.8 | 12.9 | 0.00 | 0.00 | 0.00 | 60 | 1015.1 |
| 20260503043552 | 3 | 240 | 4.8 | 12.9 | 0.00 | 0.00 | 0.00 | 59 | 1015.1 |
| 20260503043056 | 3 | 316 | 3.2 | 12.9 | 0.00 | 0.00 | 0.00 | 60 | 1015.2 |
| 20260503042552 | 3 | 287 | 4.8 | 12.9 | 0.00 | 0.00 | 0.00 | 59 | 1015.2 |
| 20260503042050 | 3 | 260 | 3.2 | 11.3 | 0.00 | 0.00 | 0.00 | 59 | 1015.2 |
| 20260503041549 | 3 | 267 | 4.8 | 11.3 | 0.00 | 0.00 | 0.00 | 59 | 1015.2 |
| 20260503041050 | 3 | 262 | 1.6 | 11.3 | 0.00 | 0.00 | 0.00 | 59 | 1015.3 |
| 20260503040547 | 3 | 263 | 4.8 | 11.3 | 0.00 | 0.00 | 0.00 | 59 | 1015.4 |
| 20260503040049 | 3 | 283 | 4.8 | 11.3 | 0.00 | 0.00 | 0.00 | 59 | 1015.4 |
| 20260503035545 | 3 | 254 | 3.2 | 11.3 | 0.00 | 0.00 | 0.00 | 59 | 1015.4 |
| 20260503035045 | 3 | 248 | 3.2 | 11.3 | 0.00 | 0.00 | 0.00 | 59 | 1015.4 |
| 20260503034548 | 3 | 264 | 4.8 | 9.7 | 0.00 | 0.00 | 0.00 | 58 | 1015.3 |
| 20260503034045 | 3 | 269 | 1.6 | 6.4 | 0.00 | 0.00 | 0.00 | 59 | 1015.4 |
| 20260503033544 | 3 | 252 | 1.6 | 11.3 | 0.00 | 0.00 | 0.00 | 58 | 1015.4 |
| 20260503033044 | 3 | 250 | 4.8 | 12.9 | 0.00 | 0.00 | 0.00 | 58 | 1015.5 |
| 20260503032544 | 3 | 274 | 6.4 | 12.9 | 0.00 | 0.00 | 0.00 | 58 | 1015.5 |
| 20260503032044 | 3 | 278 | 1.6 | 9.7 | 0.00 | 0.00 | 0.00 | 58 | 1015.5 |
| 20260503031544 | 3 | 264 | 4.8 | 11.3 | 0.00 | 0.00 | 0.00 | 58 | 1015.5 |
| 20260503031044 | 3 | 257 | 4.8 | 11.3 | 0.00 | 0.00 | 0.00 | 58 | 1015.5 |
| 20260503030544 | 3 | 276 | 4.8 | 11.3 | 0.00 | 0.00 | 0.00 | 58 | 1015.6 |
| 20260503030043 | 3 | 279 | 4.8 | 11.3 | 0.00 | 0.00 | 0.00 | 58 | 1015.5 |
| 20260503025543 | 3 | 261 | 6.4 | 11.3 | 0.00 | 0.00 | 0.00 | 58 | 1015.6 |
| 20260503025043 | 3 | 250 | 4.8 | 11.3 | 0.00 | 0.00 | 0.00 | 58 | 1015.6 |
| 20260503024543 | 3 | 262 | 6.4 | 12.9 | 0.00 | 0.00 | 0.00 | 58 | 1015.6 |
| 20260503024045 | 3 | 280 | 4.8 | 12.9 | 0.00 | 0.00 | 0.00 | 58 | 1015.7 |
| 20260503023543 | 3 | 250 | 8.0 | 12.9 | 0.00 | 0.00 | 0.00 | 58 | 1015.7 |
| 20260503023047 | 3 | 263 | 4.8 | 9.7 | 0.00 | 0.00 | 0.00 | 58 | 1015.8 |
| 20260503022542 | 3 | 257 | 3.2 | 11.3 | 0.00 | 0.00 | 0.00 | 59 | 1015.8 |
| 20260503022042 | 3 | 252 | 4.8 | 11.3 | 0.00 | 0.00 | 0.00 | 58 | 1015.9 |
| 20260503021543 | 3 | 282 | 4.8 | 14.5 | 0.00 | 0.00 | 0.00 | 59 | 1015.9 |
| 20260503021043 | 3 | 260 | 6.4 | 14.5 | 0.00 | 0.00 | 0.00 | 58 | 1015.8 |
| 20260503020542 | 3 | 271 | 4.8 | 9.7 | 0.00 | 0.00 | 0.00 | 58 | 1015.9 |
| 20260503020042 | 3 | 295 | 1.6 | 9.7 | 0.00 | 0.00 | 0.00 | 59 | 1015.9 |
| 20260503015544 | 3 | 285 | 4.8 | 9.7 | 0.00 | 0.00 | 0.00 | 58 | 1015.8 |
| 20260503015041 | 3 | 263 | 4.8 | 12.9 | 0.00 | 0.00 | 0.00 | 58 | 1015.9 |
| 20260503014546 | 3 | 255 | 4.8 | 17.7 | 0.00 | 0.00 | 0.00 | 58 | 1015.8 |
| 20260503014041 | 3 | 264 | 6.4 | 17.7 | 0.00 | 0.00 | 0.00 | 58 | 1015.9 |
| 20260503013541 | 3 | 257 | 4.8 | 9.7 | 0.00 | 0.00 | 0.00 | 58 | 1015.9 |
| 20260503013043 | 3 | 278 | 6.4 | 9.7 | 0.00 | 0.00 | 0.00 | 58 | 1015.9 |
| 20260503012540 | 3 | 267 | 4.8 | 9.7 | 0.00 | 0.00 | 0.00 | 58 | 1015.8 |
| 20260503012040 | 3 | 256 | 4.8 | 9.7 | 0.00 | 0.00 | 0.00 | 58 | 1015.9 |
| 20260503011542 | 3 | 271 | 3.2 | 8.0 | 0.00 | 0.00 | 0.00 | 59 | 1015.9 |
| 20260503011044 | 3 | 257 | 3.2 | 9.7 | 0.00 | 0.00 | 0.00 | 58 | 1015.9 |
| 20260503010539 | 3 | 253 | 3.2 | 9.7 | 0.00 | 0.00 | 0.00 | 58 | 1016.0 |
| 20260503010041 | 3 | 242 | 4.8 | 12.9 | 0.00 | 0.00 | 0.00 | 58 | 1016.0 |
| 20260503005538 | 3 | 244 | 4.8 | 11.3 | 0.00 | 0.03 | 0.00 | 58 | 1015.8 |
| 20260503005037 | 3 | 266 | 6.4 | 11.3 | 0.00 | 0.03 | 0.00 | 58 | 1015.8 |
| 20260503004540 | 3 | 269 | 6.4 | 11.3 | 0.00 | 0.03 | 0.00 | 58 | 1015.6 |
| 20260503004039 | 3 | 257 | 4.8 | 14.5 | 0.00 | 0.03 | 0.00 | 58 | 1015.7 |
| 20260503003537 | 3 | 294 | 6.4 | 14.5 | 0.00 | 0.03 | 0.00 | 57 | 1015.6 |
| 20260503003045 | 3 | 290 | 3.2 | 12.9 | 0.00 | 0.03 | 0.00 | 58 | 1015.6 |
| 20260503002536 | 3 | 281 | 6.4 | 14.5 | 0.00 | 0.03 | 0.00 | 57 | 1015.6 |
| 20260503002037 | 3 | 275 | 6.4 | 16.1 | 0.00 | 0.03 | 0.00 | 57 | 1015.5 |
| 20260503001544 | 3 | 257 | 4.8 | 16.1 | 0.00 | 0.03 | 0.00 | 57 | 1015.4 |
| 20260503001037 | 3 | 314 | 4.8 | 11.3 | 0.00 | 0.03 | 0.00 | 57 | 1015.4 |
| 20260503000537 | 4 | 302 | 4.8 | 11.3 | 0.00 | 0.03 | 0.00 | 57 | 1015.4 |
| 20260503000041 | 4 | 280 | 4.8 | 16.1 | 0.00 | 0.03 | 0.00 | 57 | 1015.4 |
| 20260502235536 | 4 | 306 | 8.0 | 16.1 | 0.00 | 0.05 | 0.00 | 57 | 1015.3 |
| 20260502235036 | 4 | 253 | 6.4 | 11.3 | 0.00 | 0.05 | 0.00 | 57 | 1015.2 |
| 20260502234548 | 4 | 258 | 3.2 | 12.9 | 0.00 | 0.05 | 0.00 | 57 | 1015.2 |
| 20260502234036 | 4 | 282 | 6.4 | 12.9 | 0.00 | 0.05 | 0.00 | 57 | 1015.2 |
| 20260502233535 | 4 | 283 | 4.8 | 11.3 | 0.00 | 0.05 | 0.00 | 57 | 1015.2 |
| 20260502233041 | 4 | 289 | 4.8 | 14.5 | 0.00 | 0.05 | 0.00 | 56 | 1015.1 |
| 20260502232533 | 4 | 304 | 6.4 | 14.5 | 0.00 | 0.05 | 0.00 | 57 | 1015.2 |
| 20260502232033 | 4 | 281 | 6.4 | 14.5 | 0.00 | 0.05 | 0.00 | 57 | 1015.1 |
| 20260502231533 | 4 | 301 | 6.4 | 14.5 | 0.00 | 0.05 | 0.00 | 56 | 1015.1 |
| 20260502231033 | 4 | 298 | 8.0 | 14.5 | 0.00 | 0.05 | 0.00 | 56 | 1015.1 |
| 20260502230533 | 5 | 295 | 8.0 | 12.9 | 0.00 | 0.05 | 0.00 | 55 | 1015.0 |
| 20260502230036 | 5 | 299 | 4.8 | 14.5 | 0.00 | 0.05 | 0.00 | 56 | 1015.0 |
| 20260502225532 | 5 | 275 | 6.4 | 14.5 | 0.00 | 0.15 | 0.00 | 56 | 1015.0 |
| 20260502225033 | 5 | 300 | 4.8 | 11.3 | 0.00 | 0.15 | 0.00 | 56 | 1015.0 |
| 20260502224540 | 5 | 319 | 1.6 | 8.0 | 0.00 | 0.15 | 0.00 | 57 | 1015.0 |
| 20260502224034 | 5 | 266 | 1.6 | 8.0 | 0.00 | 0.15 | 0.00 | 56 | 1014.9 |
| 20260502223533 | 5 | 295 | 3.2 | 9.7 | 0.00 | 0.15 | 0.00 | 55 | 1014.9 |
| 20260502223040 | 5 | 311 | 4.8 | 14.5 | 0.00 | 0.15 | 0.00 | 55 | 1015.0 |
| 20260502222530 | 5 | 309 | 6.4 | 14.5 | 0.00 | 0.15 | 0.00 | 56 | 1015.0 |
| 20260502222031 | 5 | 298 | 6.4 | 14.5 | 0.00 | 0.15 | 0.00 | 55 | 1015.0 |
| 20260502221530 | 5 | 318 | 6.4 | 12.9 | 0.00 | 0.15 | 0.00 | 56 | 1015.1 |
| 20260502221033 | 5 | 298 | 8.0 | 19.3 | 0.00 | 0.15 | 0.00 | 56 | 1015.0 |
| 20260502220530 | 5 | 300 | 6.4 | 19.3 | 0.00 | 0.15 | 0.00 | 55 | 1014.9 |
| 20260502220030 | 5 | 298 | 8.0 | 19.3 | 0.00 | 0.15 | 0.00 | 55 | 1014.9 |
| 20260502215530 | 5 | 317 | 8.0 | 17.7 | 0.00 | 0.20 | 0.00 | 55 | 1015.0 |
| 20260502215029 | 5 | 307 | 8.0 | 16.1 | 0.00 | 0.20 | 0.00 | 55 | 1015.0 |
| 20260502214530 | 5 | 318 | 8.0 | 14.5 | 0.00 | 0.20 | 0.00 | 54 | 1014.8 |
| 20260502214033 | 5 | 325 | 8.0 | 14.5 | 0.00 | 0.20 | 0.00 | 56 | 1014.8 |
| 20260502213529 | 5 | 323 | 6.4 | 17.7 | 0.00 | 0.20 | 0.00 | 55 | 1014.8 |
| 20260502213029 | 5 | 326 | 9.7 | 20.9 | 0.00 | 0.20 | 0.00 | 54 | 1014.7 |
| 20260502212529 | 5 | 318 | 11.3 | 20.9 | 0.00 | 0.20 | 0.00 | 53 | 1014.7 |
| 20260502212029 | 5 | 287 | 9.7 | 19.3 | 0.00 | 0.20 | 0.00 | 53 | 1014.7 |
| 20260502211532 | 6 | 271 | 8.0 | 19.3 | 0.00 | 0.20 | 0.00 | 54 | 1014.7 |
| 20260502211028 | 6 | 305 | 8.0 | 19.3 | 0.00 | 0.20 | 0.00 | 53 | 1014.6 |
| 20260502210527 | 6 | 333 | 9.7 | 19.3 | 0.00 | 0.20 | 0.00 | 53 | 1014.5 |
| 20260502210034 | 6 | 299 | 11.3 | 17.7 | 0.00 | 0.20 | 0.00 | 52 | 1014.6 |
| 20260502205527 | 6 | 312 | 11.3 | 19.3 | 0.00 | 0.28 | 0.00 | 52 | 1014.6 |
| 20260502205027 | 6 | 316 | 11.3 | 19.3 | 0.00 | 0.28 | 0.00 | 52 | 1014.5 |
| 20260502204527 | 5 | 324 | 8.0 | 20.9 | 0.00 | 0.28 | 0.00 | 51 | 1014.6 |
| 20260502204027 | 5 | 288 | 6.4 | 20.9 | 0.00 | 0.28 | 0.00 | 52 | 1014.5 |
| 20260502203530 | 5 | 294 | 6.4 | 17.7 | 0.00 | 0.28 | 0.00 | 50 | 1014.6 |
| 20260502203027 | 6 | 301 | 9.7 | 16.1 | 0.00 | 0.28 | 0.00 | 50 | 1014.6 |
| 20260502202526 | 6 | 354 | 6.4 | 19.3 | 0.00 | 0.28 | 0.00 | 50 | 1014.5 |
| 20260502202026 | 6 | 356 | 8.0 | 19.3 | 0.00 | 0.28 | 0.00 | 50 | 1014.6 |
| 20260502201526 | 6 | 319 | 8.0 | 16.1 | 0.00 | 0.28 | 0.00 | 50 | 1014.6 |
| 20260502201026 | 6 | 310 | 9.7 | 16.1 | 0.00 | 0.28 | 0.00 | 46 | 1014.5 |
| 20260502200531 | 6 | 304 | 4.8 | 19.3 | 0.00 | 0.28 | 0.00 | 45 | 1014.6 |
| 20260502200026 | 6 | 297 | 8.0 | 19.3 | 0.00 | 0.28 | 0.00 | 44 | 1014.6 |
| 20260502195526 | 6 | 328 | 9.7 | 19.3 | 0.00 | 0.36 | 0.00 | 45 | 1014.6 |
| 20260502195025 | 6 | 297 | 9.7 | 17.7 | 0.00 | 0.36 | 0.00 | 45 | 1014.6 |
| 20260502194532 | 6 | 301 | 8.0 | 19.3 | 0.00 | 0.36 | 0.00 | 44 | 1014.7 |
| 20260502194025 | 6 | 302 | 12.9 | 19.3 | 0.00 | 0.36 | 0.00 | 44 | 1014.6 |
| 20260502193525 | 7 | 321 | 6.4 | 19.3 | 0.00 | 0.36 | 0.00 | 47 | 1014.7 |
| 20260502193025 | 6 | 291 | 9.7 | 19.3 | 0.00 | 0.36 | 0.00 | 45 | 1014.6 |
| 20260502192525 | 6 | 304 | 6.4 | 14.5 | 0.00 | 0.36 | 0.00 | 45 | 1014.6 |
| 20260502192023 | 6 | 299 | 9.7 | 14.5 | 0.00 | 0.36 | 0.00 | 43 | 1014.7 |
| 20260502191528 | 6 | 309 | 8.0 | 14.5 | 0.00 | 0.36 | 0.00 | 42 | 1014.7 |
| 20260502191028 | 6 | 281 | 6.4 | 19.3 | 0.00 | 0.36 | 0.00 | 45 | 1014.7 |
| 20260502190523 | 7 | 321 | 11.3 | 19.3 | 0.00 | 0.36 | 0.00 | 45 | 1014.7 |
| 20260502190029 | 6 | 306 | 8.0 | 17.7 | 0.00 | 0.36 | 0.00 | 44 | 1014.7 |
| 20260502185522 | 7 | 268 | 8.0 | 24.1 | 0.00 | 0.38 | 0.00 | 42 | 1014.6 |
| 20260502185022 | 7 | 302 | 14.5 | 24.1 | 0.00 | 0.38 | 0.00 | 43 | 1014.6 |
| 20260502184523 | 7 | 311 | 8.0 | 17.7 | 0.00 | 0.38 | 0.00 | 45 | 1014.6 |
| 20260502184022 | 6 | 268 | 11.3 | 19.3 | 0.00 | 0.38 | 0.00 | 40 | 1014.7 |
| 20260502183522 | 7 | 299 | 9.7 | 19.3 | 0.00 | 0.38 | 0.00 | 43 | 1014.7 |
| 20260502183022 | 7 | 299 | 9.7 | 19.3 | 0.00 | 0.38 | 0.00 | 45 | 1014.7 |
| 20260502182521 | 7 | 320 | 9.7 | 20.9 | 0.00 | 0.38 | 0.00 | 43 | 1014.7 |
| 20260502182021 | 7 | 331 | 14.5 | 24.1 | 0.00 | 0.38 | 0.00 | 43 | 1014.7 |
| 20260502181529 | 7 | 304 | 8.0 | 19.3 | 0.00 | 0.38 | 0.00 | 43 | 1014.6 |
| 20260502181020 | 7 | 295 | 9.7 | 20.9 | 0.00 | 0.38 | 0.00 | 43 | 1014.6 |
| 20260502180522 | 7 | 293 | 11.3 | 24.1 | 0.00 | 0.38 | 0.00 | 41 | 1014.6 |
| 20260502170517 | 6 | 278 | 11.3 | 25.7 | 0.00 | 0.38 | 0.00 | 43 | 1014.4 |
| 20260502164015 | 6 | 304 | 8.0 | 17.7 | 0.00 | 0.38 | 0.00 | 47 | 1014.7 |
| 20260502163515 | 7 | 302 | 9.7 | 19.3 | 0.00 | 0.38 | 0.00 | 43 | 1014.7 |
| 20260502163023 | 6 | 283 | 12.9 | 22.5 | 0.00 | 0.38 | 0.00 | 46 | 1014.8 |
| 20260502162515 | 6 | 285 | 11.3 | 22.5 | 0.00 | 0.38 | 0.00 | 44 | 1014.9 |
| 20260502162016 | 7 | 315 | 9.7 | 20.9 | 0.00 | 0.38 | 0.00 | 46 | 1014.9 |
| 20260502161514 | 7 | 325 | 8.0 | 25.7 | 0.00 | 0.38 | 0.00 | 45 | 1014.9 |
| 20260502161013 | 7 | 290 | 12.9 | 25.7 | 0.00 | 0.38 | 0.00 | 44 | 1015.0 |
| 20260502160512 | 6 | 280 | 8.0 | 22.5 | 0.00 | 0.38 | 0.00 | 47 | 1014.8 |
| 20260502152010 | 6 | 312 | 9.7 | 24.1 | 0.00 | 0.38 | 0.00 | 49 | 1014.9 |
| 20260502151524 | 6 | 275 | 12.9 | 22.5 | 0.00 | 0.38 | 0.00 | 44 | 1014.9 |
| 20260502151008 | 6 | 278 | 9.7 | 19.3 | 0.00 | 0.38 | 0.00 | 48 | 1014.8 |
| 20260502150506 | 6 | 240 | 6.4 | 20.9 | 0.00 | 0.38 | 0.00 | 50 | 1015.0 |
| 20260502130554 | 3 | 295 | 8.0 | 19.3 | 0.00 | 0.38 | 0.00 | 61 | 1015.9 |
| 20260502123556 | 2 | 302 | 4.8 | 14.5 | 0.00 | 0.38 | 0.00 | 64 | 1015.9 |
| 20260502123103 | 2 | 250 | 6.4 | 14.5 | 0.00 | 0.38 | 0.00 | 64 | 1015.8 |
| 20260502122551 | 2 | 277 | 4.8 | 14.5 | 0.00 | 0.38 | 0.00 | 63 | 1015.9 |
| 20260502122051 | 2 | 277 | 4.8 | 14.5 | 0.00 | 0.38 | 0.00 | 64 | 1015.9 |
| 20260502121551 | 2 | 251 | 6.4 | 14.5 | 0.00 | 0.38 | 0.00 | 64 | 1015.9 |
| 20260502121051 | 2 | 305 | 6.4 | 16.1 | 0.00 | 0.38 | 0.00 | 64 | 1015.8 |
| 20260502120551 | 2 | 303 | 6.4 | 16.1 | 0.00 | 0.38 | 0.00 | 64 | 1015.8 |
| 20260502115550 | 2 | 278 | 11.3 | 19.3 | 0.00 | 0.38 | 0.00 | 64 | 1015.8 |
| 20260502115049 | 2 | 296 | 6.4 | 12.9 | 0.00 | 0.38 | 0.00 | 64 | 1015.8 |
| 20260502114555 | 2 | 269 | 6.4 | 14.5 | 0.00 | 0.38 | 0.00 | 64 | 1015.6 |
| 20260502114049 | 2 | 307 | 6.4 | 14.5 | 0.00 | 0.38 | 0.00 | 64 | 1015.6 |
| 20260502113549 | 2 | 292 | 4.8 | 16.1 | 0.00 | 0.38 | 0.00 | 65 | 1015.7 |
| 20260502113052 | 2 | 255 | 8.0 | 12.9 | 0.00 | 0.38 | 0.00 | 64 | 1015.6 |
| 20260502112547 | 2 | 249 | 3.2 | 14.5 | 0.00 | 0.38 | 0.00 | 65 | 1015.7 |
| 20260502112047 | 1 | 262 | 6.4 | 14.5 | 0.00 | 0.38 | 0.00 | 65 | 1015.5 |
| 20260502111546 | 1 | 290 | 4.8 | 14.5 | 0.00 | 0.38 | 0.00 | 65 | 1015.5 |
| 20260502111049 | 1 | 265 | 6.4 | 14.5 | 0.00 | 0.38 | 0.00 | 66 | 1015.4 |
| 20260502110546 | 1 | 285 | 4.8 | 11.3 | 0.00 | 0.38 | 0.00 | 66 | 1015.4 |
| 20260502110046 | 1 | 255 | 4.8 | 12.9 | 0.00 | 0.38 | 0.00 | 66 | 1015.4 |
| 20260502105546 | 1 | 237 | 6.4 | 12.9 | 0.00 | 0.38 | 0.00 | 67 | 1015.3 |
| 20260502105046 | 0 | 229 | 6.4 | 16.1 | 0.00 | 0.38 | 0.00 | 67 | 1015.4 |
| 20260502104545 | 0 | 251 | 4.8 | 16.1 | 0.00 | 0.38 | 0.00 | 67 | 1015.4 |
| 20260502104044 | 0 | 246 | 6.4 | 12.9 | 0.00 | 0.38 | 0.00 | 67 | 1015.2 |
| 20260502103546 | 0 | 245 | 4.8 | 12.9 | 0.00 | 0.38 | 0.00 | 67 | 1015.2 |
| 20260502103044 | 0 | 283 | 4.8 | 12.9 | 0.00 | 0.38 | 0.00 | 68 | 1015.1 |
| 20260502102544 | 0 | 254 | 6.4 | 12.9 | 0.00 | 0.38 | 0.00 | 68 | 1015.1 |
| 20260502102046 | 0 | 247 | 6.4 | 12.9 | 0.00 | 0.38 | 0.00 | 68 | 1015.1 |
| 20260502101556 | 0 | 260 | 3.2 | 12.9 | 0.00 | 0.38 | 0.00 | 68 | 1015.0 |
| 20260502101042 | 0 | 275 | 6.4 | 11.3 | 0.00 | 0.38 | 0.00 | 68 | 1015.1 |
| 20260502100541 | 0 | 275 | 4.8 | 9.7 | 0.00 | 0.38 | 0.00 | 68 | 1015.1 |
| 20260502100107 | 0 | 263 | 4.8 | 12.9 | 0.00 | 0.38 | 0.00 | 68 | 1015.1 |
| 20260502091036 | 1 | 269 | 6.4 | 14.5 | 0.00 | 0.38 | 0.00 | 68 | 1014.5 |
| 20260502090532 | 1 | 267 | 6.4 | 14.5 | 0.00 | 0.38 | 0.00 | 68 | 1014.4 |
| 20260502071515 | 2 | 266 | 9.7 | 20.9 | 0.00 | 0.38 | 0.00 | 65 | 1013.7 |
| 20260502071014 | 2 | 221 | 6.4 | 19.3 | 0.00 | 0.38 | 0.00 | 65 | 1013.6 |
| 20260502070514 | 2 | 281 | 6.4 | 19.3 | 0.00 | 0.38 | 0.00 | 66 | 1013.6 |
| 20260502070014 | 3 | 252 | 3.2 | 11.3 | 0.00 | 0.38 | 0.00 | 66 | 1013.6 |
| 20260502065514 | 3 | 272 | 6.4 | 16.1 | 0.00 | 0.38 | 0.00 | 66 | 1013.6 |
| 20260502065012 | 3 | 281 | 9.7 | 16.1 | 0.00 | 0.38 | 0.00 | 67 | 1013.5 |
| 20260502064512 | 3 | 259 | 8.0 | 14.5 | 0.00 | 0.38 | 0.00 | 67 | 1013.5 |
| 20260502064017 | 3 | 277 | 6.4 | 17.7 | 0.00 | 0.38 | 0.00 | 68 | 1013.7 |